Weather History for Quincy, IL

Change the Weather History Date:

Friday, August 30, 2013

  Actual Average Record
Temperature  
Mean Temperature 87 °F 72 °F  
Max Temperature 100 °F 83 °F 106 °F (1947)
Min Temperature 74 °F 62 °F 46 °F (1911)
Degree Days  
Heating Degree Days 0 0  
Month to date heating degree days 2 0  
Since 1 June heating degree days 18 16  
Since 1 July heating degree days 6 0  
Cooling Degree Days 22 8  
Month to date cooling degree days 304 290  
Year to date cooling degree days 985 946  
Since 1 June cooling degree days 873 860  
Growing Degree Days 38 (Base 50)    
Moisture  
Dew Point 70 °F    
Average Humidity 62    
Maximum Humidity 91    
Minimum Humidity 33    
Precipitation  
Precipitation 0.00 in 0.11 in 2.05 in (1994)
Month to date precipitation 0.01 3.51  
Year to date precipitation 28.10 25.63  
Sea Level Pressure  
Sea Level Pressure 29.86 in    
Wind  
Wind Speed 8 mph (SW)    
Max Wind Speed 16 mph    
Max Gust Speed 22 mph    
Visibility 9 miles    
Events      
T = Trace of Precipitation, MM = Missing Value Source: NWS Daily Summary

Daily Weather History Graph

Daily Weather History Graph

Search for Another Location

Airport:

Trip Planner

Search our weather history database for the weather conditions in past years. The results will help you decide how hot, cold, wet, or windy it might be!

Date:

Astronomy

Aug. 30, 2013 Rise Set
Actual Time 6:30 AM CDT 7:38 PM CDT
Civil Twilight 6:03 AM CDT 8:06 PM CDT
Nautical Twilight 5:29 AM CDT 8:39 PM CDT
Astronomical Twilight 4:55 AM CDT 9:14 PM CDT
Moon 1:09 AM CDT (8/30) 3:54 PM CDT (8/30)
Length of Visible Light 14h 03m
Length of Day
13h 07m
Waning Crescent, 29% of the Moon is Illuminated
Aug 30
Waning Crescent
Sep 5
New
Sep 12
First Quarter
Sep 19
Full
Sep 26
Last Quarter

Hourly Weather History & Observations

Time (CDT) Temp. Heat Index Dew Point Humidity Pressure Visibility Wind Dir Wind Speed Gust Speed Precip Events Conditions
12:54 AM 79.0 °F - 75.0 °F 88% 29.94 in 7.0 mi SSE 6.9 mph - N/A   Clear
1:54 AM 78.1 °F - 75.0 °F 90% 29.94 in 6.0 mi South 4.6 mph - N/A   Clear
2:54 AM 77.0 °F - 73.9 °F 90% 29.93 in 5.0 mi Calm Calm - N/A   Clear
3:54 AM 77.0 °F - 73.9 °F 90% 29.92 in 5.0 mi South 4.6 mph - N/A   Clear
4:54 AM 77.0 °F - 73.0 °F 88% 29.92 in 7.0 mi South 5.8 mph - N/A   Clear
5:54 AM 75.0 °F - 72.0 °F 90% 29.92 in 7.0 mi South 4.6 mph - N/A   Clear
6:54 AM 75.0 °F - 72.0 °F 90% 29.92 in 6.0 mi South 5.8 mph - N/A   Clear
7:54 AM 78.1 °F - 73.0 °F 84% 29.93 in 10.0 mi SSW 6.9 mph - N/A   Clear
8:54 AM 82.9 °F 88.0 °F 72.0 °F 69% 29.92 in 10.0 mi WSW 9.2 mph - N/A   Clear
9:54 AM 89.1 °F 95.0 °F 71.1 °F 55% 29.91 in 10.0 mi West 9.2 mph - N/A   Clear
10:54 AM 91.9 °F 95.9 °F 68.0 °F 45% 29.90 in 10.0 mi West 12.7 mph 19.6 mph N/A   Clear
11:54 AM 95.0 °F 100.7 °F 69.1 °F 43% 29.88 in 10.0 mi WSW 9.2 mph - N/A   Clear
12:54 PM 98.1 °F 103.0 °F 68.0 °F 37% 29.87 in 10.0 mi WSW 9.2 mph - N/A   Clear
1:54 PM 99.0 °F 103.5 °F 66.9 °F 35% 29.86 in 10.0 mi SW 10.4 mph - N/A   Clear
2:54 PM 99.0 °F 102.9 °F 66.0 °F 34% 29.83 in 10.0 mi WSW 10.4 mph 21.9 mph N/A   Clear
3:54 PM 100.0 °F 104.9 °F 66.9 °F 34% 29.82 in 10.0 mi SW 12.7 mph 18.4 mph N/A   Clear
4:54 PM 99.0 °F 103.5 °F 66.9 °F 35% 29.80 in 10.0 mi SW 10.4 mph - N/A   Partly Cloudy
5:54 PM 98.1 °F 101.8 °F 66.0 °F 35% 29.79 in 10.0 mi SW 11.5 mph - N/A   Partly Cloudy
6:54 PM 93.0 °F 97.4 °F 68.0 °F 44% 29.78 in 10.0 mi SW 6.9 mph - N/A   Clear
7:54 PM 87.1 °F 90.6 °F 68.0 °F 53% 29.80 in 10.0 mi SSW 6.9 mph - N/A   Scattered Clouds
8:54 PM 84.0 °F 87.0 °F 68.0 °F 58% 29.80 in 10.0 mi SSW 6.9 mph - N/A   Clear
9:54 PM 82.0 °F 84.5 °F 66.9 °F 60% 29.79 in 10.0 mi SSW 5.8 mph - N/A   Clear
10:54 PM 81.0 °F 83.3 °F 66.9 °F 62% 29.79 in 10.0 mi SSW 6.9 mph - N/A   Clear
11:54 PM 80.1 °F 82.7 °F 68.0 °F 67% 29.79 in 10.0 mi SSW 6.9 mph - N/A   Clear